{"data":{"norad_id":49732,"intl_designator":"2021-115J","name":"STARLINK-3246","alt_names":[],"object_type":"PAYLOAD","status":"ACTIVE","operator":null,"country":"US","launch_date":"2021-12-02","launch_site_code":"AFETR","launch_vehicle":null,"mission":null,"orbit_class":"UNKNOWN","rcs_meters":null,"size_class":null,"mass_kg":null,"dimensions":null,"purposes":["comms"],"wikipedia_slug":null,"has_3d_model":false,"image_url":null,"decayed_at":null,"tle_current":{"epoch":"2026-09-19T12:51:59.127264Z","epoch_age_seconds":128317,"freshness":"FRESH","line1":"1 49732U 21115J   26262.53610101  .00000818  00000+0  38104-4 0  9996","line2":"2 49732  53.1621 356.3001 0001169  75.4689 284.6442 15.31700691264824","mean_motion":15.31700691,"eccentricity":0.0001169,"inclination_deg":53.1621,"raan_deg":356.3001,"arg_perigee_deg":75.4689,"mean_anomaly_deg":284.6442,"bstar":3.8104e-5,"rev_number":26482,"period_min":94.013145548682,"perigee_km":469.93730191143,"apogee_km":471.53856887133,"semimajor_km":6848.8749353914,"source":"CELESTRAK","updated_at":"2026-09-20T09:00:39.404160Z"}}}